Time,TemperatureF,DewpointF,PressureIn,WindDirection,WindDirectionDegrees,WindSpeedMPH,WindSpeedGustMPH,Humidity,HourlyPrecipIn,Conditions,Clouds,dailyrainin,SoftwareType,DateUTC
2013-02-09 00:00:00,52.6,50.0,30.08,WNW,303,0.0,4.0,91,0.00,,,0.00,weatherlink.com 1.10,2013-02-09 05:00:00,
2013-02-09 00:15:00,52.1,50.0,30.08,NW,313,0.0,1.0,91,0.00,,,0.00,weatherlink.com 1.10,2013-02-09 05:15:00,
2013-02-09 00:30:00,51.3,49.0,30.08,NW,313,0.0,1.0,92,0.00,,,0.00,weatherlink.com 1.10,2013-02-09 05:30:00,
2013-02-09 00:45:00,50.7,49.0,30.09,NW,317,0.0,0.0,92,0.00,,,0.00,weatherlink.com 1.10,2013-02-09 05:45:00,
2013-02-09 01:00:00,50.0,48.0,30.09,NW,323,0.0,1.0,94,0.00,,,0.00,weatherlink.com 1.10,2013-02-09 06:00:00,
2013-02-09 01:15:00,49.6,48.0,30.10,NW,319,0.0,1.0,94,0.00,,,0.00,weatherlink.com 1.10,2013-02-09 06:15:00,
2013-02-09 01:30:00,48.9,47.0,30.10,NW,319,0.0,0.0,94,0.00,,,0.00,weatherlink.com 1.10,2013-02-09 06:30:00,
2013-02-09 01:45:00,48.5,47.0,30.10,NW,317,0.0,0.0,95,0.00,,,0.00,weatherlink.com 1.10,2013-02-09 06:45:00,
2013-02-09 02:01:00,48.1,47.0,30.10,NNW,331,0.0,1.0,95,0.00,,,0.00,weatherlink.com 1.10,2013-02-09 07:01:00,
2013-02-09 02:16:00,47.7,46.0,30.09,NW,313,0.0,1.0,95,0.00,,,0.00,weatherlink.com 1.10,2013-02-09 07:16:00,
2013-02-09 02:31:00,47.4,46.0,30.10,NW,319,0.0,1.0,96,0.00,,,0.00,weatherlink.com 1.10,2013-02-09 07:31:00,
2013-02-09 02:46:00,46.8,46.0,30.10,NW,319,0.0,2.0,96,0.00,,,0.00,weatherlink.com 1.10,2013-02-09 07:46:00,
2013-02-09 03:01:00,46.0,45.0,30.11,NW,319,0.0,1.0,96,0.00,,,0.00,weatherlink.com 1.10,2013-02-09 08:01:00,
2013-02-09 03:16:00,45.3,44.0,30.11,NW,320,0.0,0.0,96,0.00,,,0.00,weatherlink.com 1.10,2013-02-09 08:16:00,
2013-02-09 03:31:00,45.0,44.0,30.12,NW,319,0.0,0.0,96,0.00,,,0.00,weatherlink.com 1.10,2013-02-09 08:31:00,
2013-02-09 03:46:00,44.7,44.0,30.13,NW,319,0.0,0.0,97,0.00,,,0.00,weatherlink.com 1.10,2013-02-09 08:46:00,
2013-02-09 04:01:00,44.3,44.0,30.13,NW,320,0.0,0.0,97,0.00,,,0.00,weatherlink.com 1.10,2013-02-09 09:01:00,
2013-02-09 04:16:00,44.0,43.0,30.14,NW,320,0.0,0.0,97,0.00,,,0.00,weatherlink.com 1.10,2013-02-09 09:16:00,
2013-02-09 04:31:00,43.5,43.0,30.15,NW,321,0.0,0.0,97,0.00,,,0.00,weatherlink.com 1.10,2013-02-09 09:31:00,
2013-02-09 04:46:00,42.9,42.0,30.16,NW,320,0.0,0.0,97,0.00,,,0.00,weatherlink.com 1.10,2013-02-09 09:46:00,
2013-02-09 05:01:00,42.8,42.0,30.17,NW,321,0.0,1.0,97,0.00,,,0.00,weatherlink.com 1.10,2013-02-09 10:01:00,
2013-02-09 05:16:00,42.1,41.0,30.18,NW,320,0.0,1.0,97,0.00,,,0.00,weatherlink.com 1.10,2013-02-09 10:16:00,
2013-02-09 05:31:00,41.5,41.0,30.18,NW,321,0.0,1.0,97,0.00,,,0.00,weatherlink.com 1.10,2013-02-09 10:31:00,
2013-02-09 05:46:00,40.7,40.0,30.18,NW,321,0.0,0.0,97,0.00,,,0.00,weatherlink.com 1.10,2013-02-09 10:46:00,
2013-02-09 06:01:00,40.0,39.0,30.19,NW,320,0.0,1.0,97,0.00,,,0.00,weatherlink.com 1.10,2013-02-09 11:01:00,
2013-02-09 06:16:00,39.8,39.0,30.19,NW,321,0.0,0.0,97,0.00,,,0.00,weatherlink.com 1.10,2013-02-09 11:16:00,
2013-02-09 06:31:00,39.5,39.0,30.20,NW,320,0.0,0.0,97,0.00,,,0.00,weatherlink.com 1.10,2013-02-09 11:31:00,
2013-02-09 06:46:00,39.3,39.0,30.21,NW,305,0.0,0.0,97,0.00,,,0.00,weatherlink.com 1.10,2013-02-09 11:46:00,
2013-02-09 07:01:00,38.9,38.0,30.21,NW,306,0.0,0.0,97,0.00,,,0.00,weatherlink.com 1.10,2013-02-09 12:01:00,
2013-02-09 07:16:00,38.1,37.0,30.22,NW,307,0.0,0.0,97,0.00,,,0.00,weatherlink.com 1.10,2013-02-09 12:16:00,
2013-02-09 07:31:00,37.7,37.0,30.23,NW,306,0.0,0.0,97,0.00,,,0.00,weatherlink.com 1.10,2013-02-09 12:31:00,
2013-02-09 07:47:00,38.6,38.0,30.24,NW,306,0.0,0.0,97,0.00,,,0.00,weatherlink.com 1.10,2013-02-09 12:47:00,
2013-02-09 08:02:00,39.7,39.0,30.24,NW,306,0.0,0.0,97,0.00,,,0.00,weatherlink.com 1.10,2013-02-09 13:02:00,
2013-02-09 08:17:00,41.0,40.0,30.25,NW,306,0.0,0.0,97,0.00,,,0.00,weatherlink.com 1.10,2013-02-09 13:17:00,
2013-02-09 08:32:00,43.1,42.0,30.26,NW,322,0.0,1.0,95,0.00,,,0.00,weatherlink.com 1.10,2013-02-09 13:32:00,
2013-02-09 08:47:00,45.7,42.0,30.27,NW,309,0.0,3.0,87,0.00,,,0.00,weatherlink.com 1.10,2013-02-09 13:47:00,
2013-02-09 09:02:00,47.3,41.0,30.27,WNW,303,0.0,5.0,80,0.00,,,0.00,weatherlink.com 1.10,2013-02-09 14:02:00,
2013-02-09 09:17:00,49.3,40.0,30.27,North,355,1.0,3.0,70,0.00,,,0.00,weatherlink.com 1.10,2013-02-09 14:17:00,
2013-02-09 09:32:00,49.9,38.0,30.27,ENE,70,3.0,5.0,63,0.00,,,0.00,weatherlink.com 1.10,2013-02-09 14:32:00,
2013-02-09 09:48:00,51.0,38.0,30.27,NNW,345,1.0,6.0,61,0.00,,,0.00,weatherlink.com 1.10,2013-02-09 14:48:00,
2013-02-09 10:02:00,52.2,38.0,30.28,NNW,344,2.0,5.0,59,0.00,,,0.00,weatherlink.com 1.10,2013-02-09 15:02:00,
2013-02-09 10:17:00,53.2,38.0,30.28,NNW,337,1.0,6.0,56,0.00,,,0.00,weatherlink.com 1.10,2013-02-09 15:17:00,
2013-02-09 10:32:00,54.2,38.0,30.28,North,355,4.0,6.0,54,0.00,,,0.00,weatherlink.com 1.10,2013-02-09 15:32:00,
2013-02-09 10:47:00,55.0,37.0,30.27,North,1,3.0,6.0,52,0.00,,,0.00,weatherlink.com 1.10,2013-02-09 15:47:00,
2013-02-09 11:02:00,56.0,39.0,30.28,North,351,2.0,5.0,53,0.00,,,0.00,weatherlink.com 1.10,2013-02-09 16:02:00,
2013-02-09 11:17:00,56.8,37.0,30.28,ESE,113,2.0,4.0,48,0.00,,,0.00,weatherlink.com 1.10,2013-02-09 16:17:00,
2013-02-09 11:32:00,57.8,38.0,30.28,ESE,112,2.0,5.0,48,0.00,,,0.00,weatherlink.com 1.10,2013-02-09 16:32:00,
2013-02-09 11:47:00,59.0,38.0,30.28,NNE,17,3.0,5.0,46,0.00,,,0.00,weatherlink.com 1.10,2013-02-09 16:47:00,
2013-02-09 12:02:00,59.6,34.0,30.28,North,357,2.0,6.0,39,0.00,,,0.00,weatherlink.com 1.10,2013-02-09 17:02:00,
2013-02-09 12:17:00,60.8,33.0,30.27,ENE,59,3.0,7.0,36,0.00,,,0.00,weatherlink.com 1.10,2013-02-09 17:17:00,
2013-02-09 12:32:00,61.3,33.0,30.27,ENE,77,2.0,9.0,35,0.00,,,0.00,weatherlink.com 1.10,2013-02-09 17:32:00,
2013-02-09 12:47:00,61.3,33.0,30.26,NNW,347,0.0,6.0,35,0.00,,,0.00,weatherlink.com 1.10,2013-02-09 17:47:00,
2013-02-09 13:02:00,62.0,32.0,30.25,SSE,160,3.0,8.0,33,0.00,,,0.00,weatherlink.com 1.10,2013-02-09 18:02:00,
2013-02-09 13:17:00,62.8,32.0,30.25,NW,320,1.0,6.0,31,0.00,,,0.00,weatherlink.com 1.10,2013-02-09 18:17:00,
2013-02-09 13:32:00,64.1,33.0,30.24,West,268,0.0,2.0,32,0.00,,,0.00,weatherlink.com 1.10,2013-02-09 18:32:00,
2013-02-09 13:47:00,63.8,31.0,30.24,WSW,251,1.0,4.0,29,0.00,,,0.00,weatherlink.com 1.10,2013-02-09 18:47:00,
2013-02-09 14:03:00,64.4,31.0,30.23,NNW,341,1.0,3.0,29,0.00,,,0.00,weatherlink.com 1.10,2013-02-09 19:03:00,
2013-02-09 14:18:00,64.5,30.0,30.24,West,279,0.0,6.0,27,0.00,,,0.00,weatherlink.com 1.10,2013-02-09 19:18:00,
2013-02-09 14:33:00,64.5,31.0,30.24,NNW,336,0.0,8.0,28,0.00,,,0.00,weatherlink.com 1.10,2013-02-09 19:33:00,
2013-02-09 14:48:00,64.8,31.0,30.23,West,269,2.0,5.0,28,0.00,,,0.00,weatherlink.com 1.10,2013-02-09 19:48:00,
2013-02-09 15:03:00,65.2,31.0,30.23,NW,326,0.0,6.0,28,0.00,,,0.00,weatherlink.com 1.10,2013-02-09 20:03:00,
2013-02-09 15:18:00,65.4,29.0,30.23,NW,322,0.0,3.0,26,0.00,,,0.00,weatherlink.com 1.10,2013-02-09 20:18:00,
2013-02-09 15:33:00,65.6,33.0,30.23,NNW,344,1.0,4.0,30,0.00,,,0.00,weatherlink.com 1.10,2013-02-09 20:33:00,
2013-02-09 15:48:00,66.1,32.0,30.22,NW,312,0.0,2.0,28,0.00,,,0.00,weatherlink.com 1.10,2013-02-09 20:48:00,
2013-02-09 16:03:00,65.5,33.0,30.22,SE,138,1.0,4.0,30,0.00,,,0.00,weatherlink.com 1.10,2013-02-09 21:03:00,
2013-02-09 16:18:00,65.2,32.0,30.23,NW,326,0.0,2.0,29,0.00,,,0.00,weatherlink.com 1.10,2013-02-09 21:18:00,
2013-02-09 16:33:00,64.7,32.0,30.23,NNW,343,1.0,3.0,29,0.00,,,0.00,weatherlink.com 1.10,2013-02-09 21:33:00,
2013-02-09 16:48:00,63.9,34.0,30.22,ENE,72,4.0,6.0,33,0.00,,,0.00,weatherlink.com 1.10,2013-02-09 21:48:00,
2013-02-09 17:03:00,62.6,36.0,30.23,WSW,257,0.0,5.0,37,0.00,,,0.00,weatherlink.com 1.10,2013-02-09 22:03:00,
2013-02-09 17:18:00,62.0,36.0,30.23,SSW,197,2.0,4.0,38,0.00,,,0.00,weatherlink.com 1.10,2013-02-09 22:18:00,
2013-02-09 17:33:00,60.9,38.0,30.23,East,98,1.0,5.0,43,0.00,,,0.00,weatherlink.com 1.10,2013-02-09 22:33:00,
2013-02-09 17:48:00,59.1,40.0,30.23,SSE,152,5.0,7.0,49,0.00,,,0.00,weatherlink.com 1.10,2013-02-09 22:48:00,
2013-02-09 18:03:00,57.4,40.0,30.24,ESE,111,0.0,5.0,53,0.00,,,0.00,weatherlink.com 1.10,2013-02-09 23:03:00,
2013-02-09 18:18:00,56.1,41.0,30.24,ESE,116,0.0,1.0,57,0.00,,,0.00,weatherlink.com 1.10,2013-02-09 23:18:00,
2013-02-09 18:33:00,54.9,41.0,30.24,North,9,0.0,3.0,59,0.00,,,0.00,weatherlink.com 1.10,2013-02-09 23:33:00,
2013-02-09 19:03:00,52.5,41.0,30.25,NE,49,0.0,0.0,65,0.00,,,0.00,weatherlink.com 1.10,2013-02-10 00:03:00,
2013-02-09 19:18:00,51.4,41.0,30.26,WSW,249,0.0,2.0,67,0.00,,,0.00,weatherlink.com 1.10,2013-02-10 00:18:00,
2013-02-09 19:33:00,50.6,41.0,30.26,SSE,152,0.0,1.0,70,0.00,,,0.00,weatherlink.com 1.10,2013-02-10 00:33:00,
2013-02-09 19:48:00,48.5,41.0,30.28,SSE,152,0.0,0.0,76,0.00,,,0.00,weatherlink.com 1.10,2013-02-10 00:48:00,
2013-02-09 20:03:00,47.4,41.0,30.28,SSE,153,0.0,0.0,78,0.00,,,0.00,weatherlink.com 1.10,2013-02-10 01:03:00,
2013-02-09 20:18:00,45.9,40.0,30.29,SSE,152,0.0,0.0,81,0.00,,,0.00,weatherlink.com 1.10,2013-02-10 01:18:00,
2013-02-09 20:33:00,44.7,41.0,30.30,SSE,153,0.0,0.0,85,0.00,,,0.00,weatherlink.com 1.10,2013-02-10 01:33:00,
2013-02-09 20:48:00,43.9,40.0,30.30,SSE,152,0.0,0.0,86,0.00,,,0.00,weatherlink.com 1.10,2013-02-10 01:48:00,
2013-02-09 21:03:00,42.8,39.0,30.31,SSE,153,0.0,0.0,87,0.00,,,0.00,weatherlink.com 1.10,2013-02-10 02:03:00,
2013-02-09 21:18:00,42.0,39.0,30.31,SSE,152,0.0,0.0,89,0.00,,,0.00,weatherlink.com 1.10,2013-02-10 02:18:00,
2013-02-09 21:33:00,41.3,39.0,30.32,SSE,153,0.0,0.0,90,0.00,,,0.00,weatherlink.com 1.10,2013-02-10 02:33:00,
2013-02-09 21:48:00,40.6,38.0,30.32,SSE,153,0.0,0.0,91,0.00,,,0.00,weatherlink.com 1.10,2013-02-10 02:48:00,
2013-02-09 22:03:00,40.0,38.0,30.31,SSE,153,0.0,0.0,92,0.00,,,0.00,weatherlink.com 1.10,2013-02-10 03:03:00,
2013-02-09 22:18:00,39.6,38.0,30.31,SSE,153,0.0,0.0,93,0.00,,,0.00,weatherlink.com 1.10,2013-02-10 03:18:00,
2013-02-09 22:33:00,38.9,37.0,30.31,SSE,153,0.0,0.0,93,0.00,,,0.00,weatherlink.com 1.10,2013-02-10 03:33:00,
2013-02-09 22:48:00,38.5,37.0,30.31,SSE,152,0.0,0.0,93,0.00,,,0.00,weatherlink.com 1.10,2013-02-10 03:48:00,
2013-02-09 23:03:00,38.3,37.0,30.31,SSE,153,0.0,0.0,94,0.00,,,0.00,weatherlink.com 1.10,2013-02-10 04:03:00,
2013-02-09 23:18:00,37.9,36.0,30.31,SSE,152,0.0,0.0,94,0.00,,,0.00,weatherlink.com 1.10,2013-02-10 04:18:00,
2013-02-09 23:33:00,37.7,36.0,30.31,SSE,153,0.0,0.0,95,0.00,,,0.00,weatherlink.com 1.10,2013-02-10 04:33:00,
2013-02-09 23:48:00,37.3,36.0,30.31,SSE,153,0.0,0.0,94,0.00,,,0.00,weatherlink.com 1.10,2013-02-10 04:48:00,